BMCB-11 Weather Reports


time (UTC)temp
F
wind
direction
speed
knots
gust
knots
rain 1hr
in
rain 24hr
in
rain mn
in
humidity
%
barometer
mb
20260902051021 53 0 0.0 0.0 0.00 0.00 0.00 94 1022.6
20260902050017 53 0 0.0 0.0 0.00 0.00 0.00 94 1022.5
20260902044021 53 0 0.0 0.0 0.00 0.00 0.00 94 1022.5
20260902043021 53 0 0.0 0.0 0.00 0.00 0.00 94 1022.5
20260902042022 53 0 0.0 0.0 0.00 0.00 0.00 94 1022.5
20260902041024 53 0 0.0 0.0 0.00 0.00 0.00 94 1022.4
20260902040025 53 0 0.0 0.0 0.00 0.00 0.00 94 1022.3
20260902035021 53 0 0.0 0.0 0.00 0.00 0.00 93 1022.5
20260902034024 54 0 0.0 0.0 0.00 0.00 0.00 93 1022.5
20260902033025 54 0 0.0 0.0 0.00 0.00 0.00 93 1022.5
20260902032018 54 0 0.0 0.0 0.00 0.00 0.00 93 1022.6
20260902031017 54 0 0.0 0.0 0.00 0.00 0.00 93 1022.6
20260902030024 54 0 0.0 0.0 0.00 0.00 0.00 93 1022.7
20260902025017 53 0 0.0 0.0 0.00 0.00 0.00 94 1022.7
20260902024024 53 0 0.0 0.0 0.00 0.00 0.00 93 1022.8
20260902023024 53 0 0.0 0.0 0.00 0.00 0.00 93 1022.8
20260902022021 53 0 0.0 0.0 0.00 0.00 0.00 93 1022.8
20260902021022 53 0 0.0 0.0 0.00 0.00 0.00 92 1022.9
20260902020027 53 0 0.0 0.0 0.00 0.00 0.00 93 1022.9
20260902015022 53 0 0.0 0.0 0.00 0.00 0.00 94 1022.8
20260902014025 53 0 0.0 0.0 0.00 0.00 0.00 94 1022.8
20260902013027 53 0 0.0 0.0 0.00 0.00 0.00 94 1022.9
20260902012031 53 0 0.0 0.0 0.00 0.00 0.00 94 1022.8
20260902011030 53 0 0.0 0.0 0.00 0.00 0.00 94 1022.9
20260902010030 53 0 0.0 0.0 0.00 0.00 0.00 93 1022.8
20260902005030 53 0 0.0 0.0 0.00 0.00 0.00 93 1023.0
20260902004031 53 0 0.0 0.0 0.00 0.00 0.00 93 1023.0
20260902003032 53 0 0.0 0.0 0.00 0.00 0.00 93 1023.0
20260902002031 53 0 0.0 0.0 0.00 0.00 0.00 92 1023.0
20260902001038 53 0 0.0 0.0 0.00 0.00 0.00 91 1023.0
20260902000043 53 0 0.0 0.0 0.00 0.00 0.00 90 1023.0
20260901235040 54 0 0.0 0.0 0.00 0.00 0.00 90 1023.0
20260901234040 54 0 0.0 0.0 0.00 0.00 0.00 89 1022.9
20260901233042 54 0 0.0 0.0 0.00 0.00 0.00 89 1022.9
20260901232039 55 0 0.0 0.0 0.00 0.00 0.00 89 1022.8
20260901230038 54 0 0.0 0.0 0.00 0.00 0.00 91 1023.0
20260901225039 54 0 0.0 0.0 0.00 0.00 0.00 91 1023.0
20260901223037 54 0 0.0 0.0 0.00 0.00 0.00 92 1023.1
20260901222036 54 0 0.0 0.0 0.00 0.00 0.00 92 1023.1
20260901221037 54 0 0.0 0.0 0.00 0.00 0.00 92 1023.1
20260901220038 54 0 0.0 0.0 0.00 0.00 0.00 92 1023.1
20260901214036 55 0 0.0 0.0 0.00 0.00 0.00 90 1023.3
20260901213035 55 0 0.0 0.0 0.00 0.00 0.00 90 1023.3
20260901212037 56 0 0.0 0.0 0.00 0.00 0.00 88 1023.3
20260901210037 57 0 0.0 0.0 0.00 0.00 0.00 86 1023.3
20260901205036 57 0 0.0 0.0 0.00 0.00 0.00 84 1023.3
20260901204035 57 0 0.0 0.0 0.00 0.00 0.00 85 1023.4
20260901202037 58 0 0.0 0.0 0.00 0.00 0.00 84 1023.3
20260901201036 59 0 0.0 0.0 0.00 0.00 0.00 82 1023.1
20260901200037 60 0 0.0 0.0 0.00 0.00 0.00 80 1023.1
20260901195025 60 0 0.0 0.0 0.00 0.00 0.00 79 1023.1
20260901194022 60 0 0.0 0.0 0.00 0.00 0.00 79 1023.0
20260901193022 61 0 0.0 0.0 0.00 0.00 0.00 79 1022.9
20260901192024 61 0 0.0 0.0 0.00 0.00 0.00 78 1022.9
20260901190022 63 0 0.0 0.0 0.00 0.00 0.00 75 1022.6
20260901185022 62 0 0.0 0.0 0.00 0.00 0.00 77 1022.5
20260901183022 63 0 0.0 0.0 0.00 0.00 0.00 74 1022.5
20260901182022 64 0 0.0 0.0 0.00 0.00 0.00 73 1022.5
20260901181020 64 0 0.0 0.0 0.00 0.00 0.00 71 1022.3
20260901180023 64 0 0.0 0.0 0.00 0.00 0.00 72 1022.4
20260901174021 65 0 0.0 0.0 0.00 0.00 0.00 70 1022.4
20260901173022 66 0 0.0 0.0 0.00 0.00 0.00 69 1022.4
20260901172022 67 0 0.0 0.0 0.00 0.00 0.00 67 1022.3
20260901171022 66 0 0.0 0.0 0.00 0.00 0.00 67 1022.3
20260901170021 67 0 0.0 0.0 0.00 0.00 0.00 66 1022.4
20260901165022 67 0 0.0 0.0 0.00 0.00 0.00 64 1022.4
20260901164020 68 0 0.0 0.0 0.00 0.00 0.00 62 1022.2
20260901163019 69 0 0.0 0.0 0.00 0.00 0.00 58 1022.1
20260901162019 70 0 0.0 0.0 0.00 0.00 0.00 58 1022.1
20260901161017 70 0 0.0 0.0 0.00 0.00 0.00 59 1022.1
20260901160017 68 0 0.0 0.0 0.00 0.00 0.00 62 1022.1
20260901155020 68 0 0.0 0.0 0.00 0.00 0.00 62 1022.2
20260901153015 68 0 0.0 0.0 0.00 0.00 0.00 63 1022.2
20260901152019 68 0 0.0 0.0 0.00 0.00 0.00 62 1022.2
20260901150016 68 0 0.0 0.0 0.00 0.00 0.00 62 1022.1
20260901145017 69 0 0.0 0.0 0.00 0.00 0.00 60 1022.2
20260901144015 68 0 0.0 0.0 0.00 0.00 0.00 60 1022.3
20260901143016 69 0 0.0 0.0 0.00 0.00 0.00 59 1022.3
20260901140017 68 0 0.0 0.0 0.00 0.00 0.00 62 1022.4
20260901134017 69 0 0.0 0.0 0.00 0.00 0.00 60 1022.3
20260901133016 69 0 0.0 0.0 0.00 0.00 0.00 60 1022.4
20260901132018 69 0 0.0 0.0 0.00 0.00 0.00 62 1022.4
20260901131016 69 0 0.0 0.0 0.00 0.00 0.00 65 1022.5
20260901130019 70 0 0.0 0.0 0.00 0.00 0.00 62 1022.5
20260901125016 69 0 0.0 0.0 0.00 0.00 0.00 62 1022.6
20260901124016 69 0 0.0 0.0 0.00 0.00 0.00 64 1022.7
20260901123015 69 0 0.0 0.0 0.00 0.00 0.00 63 1022.7
20260901122017 69 0 0.0 0.0 0.00 0.00 0.00 62 1022.7
20260901121016 69 0 0.0 0.0 0.00 0.00 0.00 64 1022.7
20260901120017 68 0 0.0 0.0 0.00 0.00 0.00 65 1022.7
20260901115015 68 0 0.0 0.0 0.00 0.00 0.00 70 1022.6
20260901114016 69 0 0.0 0.0 0.00 0.00 0.00 69 1022.6
20260901113016 68 0 0.0 0.0 0.00 0.00 0.00 66 1022.6
20260901111020 67 0 0.0 0.0 0.00 0.00 0.00 71 1022.8
20260901110016 68 0 0.0 0.0 0.00 0.00 0.00 69 1022.7
20260901105015 68 0 0.0 0.0 0.00 0.00 0.00 69 1022.7
20260901104015 68 0 0.0 0.0 0.00 0.00 0.00 71 1022.8
20260901103017 66 0 0.0 0.0 0.00 0.00 0.00 71 1022.9
20260901102016 66 0 0.0 0.0 0.00 0.00 0.00 71 1022.8
20260901101016 67 0 0.0 0.0 0.00 0.00 0.00 76 1022.7
20260901100022 67 0 0.0 0.0 0.00 0.00 0.00 78 1022.7
20260901095016 66 0 0.0 0.0 0.00 0.00 0.00 81 1022.8
20260901094020 65 0 0.0 0.0 0.00 0.00 0.00 82 1022.8
20260901091016 64 0 0.0 0.0 0.00 0.00 0.00 84 1022.7
20260901090016 64 0 0.0 0.0 0.00 0.00 0.00 85 1022.6
20260901085021 63 0 0.0 0.0 0.00 0.00 0.00 86 1022.5
20260901084016 63 0 0.0 0.0 0.00 0.00 0.00 87 1022.5
20260901083019 62 0 0.0 0.0 0.00 0.00 0.00 88 1022.4
20260901081016 62 0 0.0 0.0 0.00 0.00 0.00 89 1022.2
20260901080016 61 0 0.0 0.0 0.00 0.00 0.00 90 1022.2
20260901074016 60 0 0.0 0.0 0.00 0.00 0.00 91 1022.1
20260901072016 59 0 0.0 0.0 0.00 0.00 0.00 92 1022.0
20260901070016 59 0 0.0 0.0 0.00 0.00 0.00 92 1021.9
20260901065020 59 0 0.0 0.0 0.00 0.00 0.00 92 1021.9
20260901063020 58 0 0.0 0.0 0.00 0.00 0.00 93 1021.9
20260901062016 58 0 0.0 0.0 0.00 0.00 0.00 93 1021.9
20260901060016 58 0 0.0 0.0 0.00 0.00 0.00 94 1021.7
20260901054021 57 0 0.0 0.0 0.00 0.00 0.00 94 1021.5
20260901053016 57 0 0.0 0.0 0.00 0.00 0.00 94 1021.4